sat.trackr.live / text

‹ back to catalog

STARLINK-5150

NORAD 57144 · 2023-090AV

PAYLOAD ACTIVE UNKNOWN

§ Identity

Operator
Country
US
Launch date
2023-06-23
Launch site
AFETR
Launch vehicle
Mass (kg)
RCS (m²)

Purposes: comms

External: N2YO · Heavens-Above · Gunter

§ Orbital elements

Epoch: 2026-05-25T04:10:07.844160Z

Period
94.27 min
Inclination
43.0032°
Eccentricity
0.0001244
Mean motion
15.27577027 rev/d
Perigee alt
482.2 km
Apogee alt
483.9 km
Semi-major
6,861.2 km
B*
1.6398e-5
RAAN
191.1438°
Arg perigee
273.9307°
Mean anomaly
86.1402°
Rev number
16,205

§ Raw data

STARLINK-51501 57144U 23090AV  26145.17370190  .00000189  00000+0  16398-4 0  99992 57144  43.0032 191.1438 0001244 273.9307  86.1402 15.27577027162052

JSON: /api/v1/satellites/57144 · /tle

For live sub-satellite position, see the globe view (requires WebGL).

§ Visibility from observer

Set your observer location to see the next 7 days of passes ≥ 10°. The values pass through the URL so the page stays shareable.

No JS? Fill the form by hand. The geolocation button needs JavaScript.